Year,Month,Day,Hour,Minute,Value (Times are PST for barometer in hPa)
2022,12,27,00,00,977.67
2022,12,27,00,01,977.65
2022,12,27,00,02,977.65
2022,12,27,00,03,977.65
2022,12,27,00,04,977.65
2022,12,27,00,05,977.65
2022,12,27,00,06,977.65
2022,12,27,00,07,977.65
2022,12,27,00,08,977.65
2022,12,27,00,09,977.65
2022,12,27,00,10,977.65
2022,12,27,00,11,977.65
2022,12,27,00,12,977.65
2022,12,27,00,13,977.65
2022,12,27,00,14,977.65
2022,12,27,00,15,977.65
2022,12,27,00,16,977.65
2022,12,27,00,17,977.65
2022,12,27,00,18,977.65
2022,12,27,00,19,977.65
2022,12,27,00,20,977.65
2022,12,27,00,21,977.65
2022,12,27,00,22,977.65
2022,12,27,00,23,977.65
2022,12,27,00,24,977.65
2022,12,27,00,25,977.65
2022,12,27,00,26,977.65
2022,12,27,00,27,977.65
2022,12,27,00,28,977.65
2022,12,27,00,29,977.65
2022,12,27,00,30,977.59
2022,12,27,00,31,977.58
2022,12,27,00,32,977.58
2022,12,27,00,33,977.58
2022,12,27,00,34,977.58
2022,12,27,00,35,977.58
2022,12,27,00,36,977.58
2022,12,27,00,37,977.58
2022,12,27,00,38,977.58
2022,12,27,00,39,977.58
2022,12,27,00,40,977.58
2022,12,27,00,41,977.58
2022,12,27,00,42,977.58
2022,12,27,00,43,977.58
2022,12,27,00,44,977.58
2022,12,27,00,45,977.46
2022,12,27,00,46,977.45
2022,12,27,00,47,977.45
2022,12,27,00,48,977.45
2022,12,27,00,49,977.45
2022,12,27,00,50,977.45
2022,12,27,00,51,977.45
2022,12,27,00,52,977.45
2022,12,27,00,53,977.45
2022,12,27,00,54,977.45
2022,12,27,00,55,977.45
2022,12,27,00,56,977.45
2022,12,27,00,57,977.45
2022,12,27,00,58,977.45
2022,12,27,00,59,977.45
2022,12,27,01,00,976.96
2022,12,27,01,01,976.91
2022,12,27,01,02,976.91
2022,12,27,01,03,976.91
2022,12,27,01,04,976.91
2022,12,27,01,05,976.91
2022,12,27,01,06,976.91
2022,12,27,01,07,976.91
2022,12,27,01,08,976.91
2022,12,27,01,09,976.91
2022,12,27,01,10,976.91
2022,12,27,01,11,976.91
2022,12,27,01,12,976.91
2022,12,27,01,13,976.91
2022,12,27,01,14,976.91
2022,12,27,01,15,976.62
2022,12,27,01,16,976.60
2022,12,27,01,17,976.60
2022,12,27,01,18,976.60
2022,12,27,01,19,976.60
2022,12,27,01,20,976.60
2022,12,27,01,21,976.60
2022,12,27,01,22,976.60
2022,12,27,01,23,976.60
2022,12,27,01,24,976.60
2022,12,27,01,25,976.60
2022,12,27,01,26,976.60
2022,12,27,01,27,976.60
2022,12,27,01,28,976.60
2022,12,27,01,29,976.60
2022,12,27,01,30,976.60
2022,12,27,01,31,976.60
2022,12,27,01,32,976.60
2022,12,27,01,33,976.60
2022,12,27,01,34,976.60
2022,12,27,01,35,976.60
2022,12,27,01,36,976.60
2022,12,27,01,37,976.60
2022,12,27,01,38,976.60
2022,12,27,01,39,976.60
2022,12,27,01,40,976.60
2022,12,27,01,41,976.60
2022,12,27,01,42,976.60
2022,12,27,01,43,976.60
2022,12,27,01,44,976.60
2022,12,27,01,45,975.93
2022,12,27,01,46,975.86
2022,12,27,01,47,975.86
2022,12,27,01,48,975.86
2022,12,27,01,49,975.86
2022,12,27,01,50,975.86
2022,12,27,01,51,975.86
2022,12,27,01,52,975.86
2022,12,27,01,53,975.86
2022,12,27,01,54,975.86
2022,12,27,01,55,975.86
2022,12,27,01,56,975.86
2022,12,27,01,57,975.86
2022,12,27,01,58,975.86
2022,12,27,01,59,975.86
2022,12,27,02,00,975.49
2022,12,27,02,01,975.45
2022,12,27,02,02,975.45
2022,12,27,02,03,975.45
2022,12,27,02,04,975.45
2022,12,27,02,05,975.45
2022,12,27,02,06,975.45
2022,12,27,02,07,975.45
2022,12,27,02,08,975.45
2022,12,27,02,09,975.45
2022,12,27,02,10,975.45
2022,12,27,02,11,975.45
2022,12,27,02,12,975.45
2022,12,27,02,13,975.45
2022,12,27,02,14,975.45
2022,12,27,02,15,975.38
2022,12,27,02,16,975.38
2022,12,27,02,17,975.38
2022,12,27,02,18,975.38
2022,12,27,02,19,975.38
2022,12,27,02,20,975.38
2022,12,27,02,21,975.38
2022,12,27,02,22,975.38
2022,12,27,02,23,975.38
2022,12,27,02,24,975.38
2022,12,27,02,25,975.38
2022,12,27,02,26,975.38
2022,12,27,02,27,975.38
2022,12,27,02,28,975.38
2022,12,27,02,29,975.38
2022,12,27,02,30,975.23
2022,12,27,02,31,975.21
2022,12,27,02,32,975.21
2022,12,27,02,33,975.21
2022,12,27,02,34,975.21
2022,12,27,02,35,975.21
2022,12,27,02,36,975.21
2022,12,27,02,37,975.21
2022,12,27,02,38,975.21
2022,12,27,02,39,975.21
2022,12,27,02,40,975.21
2022,12,27,02,41,975.21
2022,12,27,02,42,975.21
2022,12,27,02,43,975.21
2022,12,27,02,44,975.21
2022,12,27,02,45,974.89
2022,12,27,02,46,974.87
2022,12,27,02,47,974.87
2022,12,27,02,48,974.87
2022,12,27,02,49,974.87
2022,12,27,02,50,974.87
2022,12,27,02,51,974.87
2022,12,27,02,52,974.87
2022,12,27,02,53,974.87
2022,12,27,02,54,974.87
2022,12,27,02,55,974.87
2022,12,27,02,56,974.87
2022,12,27,02,57,974.87
2022,12,27,02,58,974.87
2022,12,27,02,59,974.87
2022,12,27,03,00,974.52
2022,12,27,03,01,974.50
2022,12,27,03,02,974.50
2022,12,27,03,03,974.50
2022,12,27,03,04,974.50
2022,12,27,03,05,974.50
2022,12,27,03,06,974.50
2022,12,27,03,07,974.50
2022,12,27,03,08,974.50
2022,12,27,03,09,974.50
2022,12,27,03,10,974.50
2022,12,27,03,11,974.50
2022,12,27,03,12,974.50
2022,12,27,03,13,974.50
2022,12,27,03,14,974.50
2022,12,27,03,15,973.99
2022,12,27,03,16,973.96
2022,12,27,03,17,973.96
2022,12,27,03,18,973.96
2022,12,27,03,19,973.96
2022,12,27,03,20,973.96
2022,12,27,03,21,973.96
2022,12,27,03,22,973.96
2022,12,27,03,23,973.96
2022,12,27,03,24,973.96
2022,12,27,03,25,973.96
2022,12,27,03,26,973.96
2022,12,27,03,27,973.96
2022,12,27,03,28,973.96
2022,12,27,03,29,973.96
2022,12,27,03,30,973.63
2022,12,27,03,31,973.59
2022,12,27,03,32,973.59
2022,12,27,03,33,973.59
2022,12,27,03,34,973.59
2022,12,27,03,35,973.59
2022,12,27,03,36,973.59
2022,12,27,03,37,973.59
2022,12,27,03,38,973.59
2022,12,27,03,39,973.59
2022,12,27,03,40,973.59
2022,12,27,03,41,973.59
2022,12,27,03,42,973.59
2022,12,27,03,43,973.59
2022,12,27,03,44,973.59
2022,12,27,03,45,973.26
2022,12,27,03,46,973.25
2022,12,27,03,47,973.25
2022,12,27,03,48,973.25
2022,12,27,03,49,973.25
2022,12,27,03,50,973.25
2022,12,27,03,51,973.25
2022,12,27,03,52,973.25
2022,12,27,03,53,973.25
2022,12,27,03,54,973.25
2022,12,27,03,55,973.25
2022,12,27,03,56,973.25
2022,12,27,03,57,973.25
2022,12,27,03,58,973.25
2022,12,27,03,59,973.25
2022,12,27,04,00,973.21
2022,12,27,04,01,973.21
2022,12,27,04,02,973.21
2022,12,27,04,03,973.21
2022,12,27,04,04,973.21
2022,12,27,04,05,973.21
2022,12,27,04,06,973.21
2022,12,27,04,07,973.21
2022,12,27,04,08,973.21
2022,12,27,04,09,973.21
2022,12,27,04,10,973.21
2022,12,27,04,11,973.21
2022,12,27,04,12,973.21
2022,12,27,04,13,973.21
2022,12,27,04,14,973.21
2022,12,27,04,15,973.15
2022,12,27,04,16,973.15
2022,12,27,04,17,973.15
2022,12,27,04,18,973.15
2022,12,27,04,19,973.15
2022,12,27,04,20,973.15
2022,12,27,04,21,973.15
2022,12,27,04,22,973.15
2022,12,27,04,23,973.15
2022,12,27,04,24,973.15
2022,12,27,04,25,973.15
2022,12,27,04,26,973.15
2022,12,27,04,27,973.15
2022,12,27,04,28,973.15
2022,12,27,04,29,973.15
2022,12,27,04,30,972.70
2022,12,27,04,31,972.67
2022,12,27,04,32,972.67
2022,12,27,04,33,972.67
2022,12,27,04,34,972.67
2022,12,27,04,35,972.67
2022,12,27,04,36,972.67
2022,12,27,04,37,972.67
2022,12,27,04,38,972.67
2022,12,27,04,39,972.67
2022,12,27,04,40,972.67
2022,12,27,04,41,972.67
2022,12,27,04,42,972.67
2022,12,27,04,43,972.67
2022,12,27,04,44,972.67
2022,12,27,04,45,972.35
2022,12,27,04,46,972.33
2022,12,27,04,47,972.33
2022,12,27,04,48,972.33
2022,12,27,04,49,972.33
2022,12,27,04,50,972.33
2022,12,27,04,51,972.33
2022,12,27,04,52,972.33
2022,12,27,04,53,972.33
2022,12,27,04,54,972.33
2022,12,27,04,55,972.33
2022,12,27,04,56,972.33
2022,12,27,04,57,972.33
2022,12,27,04,58,972.33
2022,12,27,04,59,972.33
2022,12,27,05,00,971.97
2022,12,27,05,01,971.93
2022,12,27,05,02,971.93
2022,12,27,05,03,971.93
2022,12,27,05,04,971.93
2022,12,27,05,05,971.93
2022,12,27,05,06,971.93
2022,12,27,05,07,971.93
2022,12,27,05,08,971.93
2022,12,27,05,09,971.93
2022,12,27,05,10,971.93
2022,12,27,05,11,971.93
2022,12,27,05,12,971.93
2022,12,27,05,13,971.93
2022,12,27,05,14,971.93
2022,12,27,05,15,971.84
2022,12,27,05,16,971.83
2022,12,27,05,17,971.83
2022,12,27,05,18,971.83
2022,12,27,05,19,971.83
2022,12,27,05,20,971.83
2022,12,27,05,21,971.83
2022,12,27,05,22,971.83
2022,12,27,05,23,971.83
2022,12,27,05,24,971.83
2022,12,27,05,25,971.83
2022,12,27,05,26,971.83
2022,12,27,05,27,971.83
2022,12,27,05,28,971.83
2022,12,27,05,29,971.83
2022,12,27,05,30,971.57
2022,12,27,05,31,971.56
2022,12,27,05,32,971.56
2022,12,27,05,33,971.56
2022,12,27,05,34,971.56
2022,12,27,05,35,971.56
2022,12,27,05,36,971.56
2022,12,27,05,37,971.56
2022,12,27,05,38,971.56
2022,12,27,05,39,971.56
2022,12,27,05,40,971.56
2022,12,27,05,41,971.56
2022,12,27,05,42,971.56
2022,12,27,05,43,971.56
2022,12,27,05,44,971.56
2022,12,27,05,45,970.91
2022,12,27,05,46,970.84
2022,12,27,05,47,970.84
2022,12,27,05,48,970.84
2022,12,27,05,49,970.84
2022,12,27,05,50,970.84
2022,12,27,05,51,970.84
2022,12,27,05,52,970.84
2022,12,27,05,53,970.84
2022,12,27,05,54,970.84
2022,12,27,05,55,970.84
2022,12,27,05,56,970.84
2022,12,27,05,57,970.84
2022,12,27,05,58,970.84
2022,12,27,05,59,970.84
2022,12,27,06,00,970.84
2022,12,27,06,01,970.84
2022,12,27,06,02,970.84
2022,12,27,06,03,970.84
2022,12,27,06,04,970.84
2022,12,27,06,05,970.84
2022,12,27,06,06,970.84
2022,12,27,06,07,970.84
2022,12,27,06,08,970.84
2022,12,27,06,09,970.84
2022,12,27,06,10,970.84
2022,12,27,06,11,970.84
2022,12,27,06,12,970.84
2022,12,27,06,13,970.84
2022,12,27,06,14,970.84
2022,12,27,06,15,970.81
2022,12,27,06,16,970.81
2022,12,27,06,17,970.81
2022,12,27,06,18,970.81
2022,12,27,06,19,970.81
2022,12,27,06,20,970.81
2022,12,27,06,21,970.81
2022,12,27,06,22,970.81
2022,12,27,06,23,970.81
2022,12,27,06,24,970.81
2022,12,27,06,25,970.81
2022,12,27,06,26,970.81
2022,12,27,06,27,970.81
2022,12,27,06,28,970.81
2022,12,27,06,29,970.81
2022,12,27,06,30,970.97
2022,12,27,06,31,970.98
2022,12,27,06,32,970.98
2022,12,27,06,33,970.98
2022,12,27,06,34,970.98
2022,12,27,06,35,970.98
2022,12,27,06,36,970.98
2022,12,27,06,37,970.98
2022,12,27,06,38,970.98
2022,12,27,06,39,970.98
2022,12,27,06,40,970.98
2022,12,27,06,41,970.98
2022,12,27,06,42,970.98
2022,12,27,06,43,970.98
2022,12,27,06,44,970.98
2022,12,27,06,45,970.85
2022,12,27,06,46,970.84
2022,12,27,06,47,970.84
2022,12,27,06,48,970.84
2022,12,27,06,49,970.84
2022,12,27,06,50,970.84
2022,12,27,06,51,970.84
2022,12,27,06,52,970.84
2022,12,27,06,53,970.84
2022,12,27,06,54,970.84
2022,12,27,06,55,970.84
2022,12,27,06,56,970.84
2022,12,27,06,57,970.84
2022,12,27,06,58,970.84
2022,12,27,06,59,970.84
2022,12,27,07,00,970.91
2022,12,27,07,01,970.91
2022,12,27,07,02,970.91
2022,12,27,07,03,970.91
2022,12,27,07,04,970.91
2022,12,27,07,05,970.91
2022,12,27,07,06,970.91
2022,12,27,07,07,970.91
2022,12,27,07,08,970.91
2022,12,27,07,09,970.91
2022,12,27,07,10,970.91
2022,12,27,07,11,970.91
2022,12,27,07,12,970.91
2022,12,27,07,13,970.91
2022,12,27,07,14,970.91
2022,12,27,07,15,970.91
2022,12,27,07,16,970.91
2022,12,27,07,17,970.91
2022,12,27,07,18,970.91
2022,12,27,07,19,970.91
2022,12,27,07,20,970.91
2022,12,27,07,21,970.91
2022,12,27,07,22,970.91
2022,12,27,07,23,970.91
2022,12,27,07,24,970.91
2022,12,27,07,25,970.91
2022,12,27,07,26,970.91
2022,12,27,07,27,970.91
2022,12,27,07,28,970.91
2022,12,27,07,29,970.91
2022,12,27,07,30,970.72
2022,12,27,07,31,970.71
2022,12,27,07,32,970.71
2022,12,27,07,33,970.71
2022,12,27,07,34,970.71
2022,12,27,07,35,970.71
2022,12,27,07,36,970.71
2022,12,27,07,37,970.71
2022,12,27,07,38,970.71
2022,12,27,07,39,970.71
2022,12,27,07,40,970.71
2022,12,27,07,41,970.71
2022,12,27,07,42,970.71
2022,12,27,07,43,970.71
2022,12,27,07,44,970.71
2022,12,27,07,45,970.49
2022,12,27,07,46,970.47
2022,12,27,07,47,970.47
2022,12,27,07,48,970.47
2022,12,27,07,49,970.47
2022,12,27,07,50,970.47
2022,12,27,07,51,970.47
2022,12,27,07,52,970.47
2022,12,27,07,53,970.47
2022,12,27,07,54,970.47
2022,12,27,07,55,970.47
2022,12,27,07,56,970.47
2022,12,27,07,57,970.47
2022,12,27,07,58,970.47
2022,12,27,07,59,970.47
2022,12,27,08,00,970.41
2022,12,27,08,01,970.40
2022,12,27,08,02,970.40
2022,12,27,08,03,970.40
2022,12,27,08,04,970.40
2022,12,27,08,05,970.40
2022,12,27,08,06,970.40
2022,12,27,08,07,970.40
2022,12,27,08,08,970.40
2022,12,27,08,09,970.40
2022,12,27,08,10,970.40
2022,12,27,08,11,970.40
2022,12,27,08,12,970.40
2022,12,27,08,13,970.40
2022,12,27,08,14,970.40
2022,12,27,08,15,970.80
2022,12,27,08,16,970.84
2022,12,27,08,17,970.84
2022,12,27,08,18,970.84
2022,12,27,08,19,970.84
2022,12,27,08,20,970.84
2022,12,27,08,21,970.84
2022,12,27,08,22,970.84
2022,12,27,08,23,970.84
2022,12,27,08,24,970.84
2022,12,27,08,25,970.84
2022,12,27,08,26,970.84
2022,12,27,08,27,970.84
2022,12,27,08,28,970.84
2022,12,27,08,29,970.84
2022,12,27,08,30,971.29
2022,12,27,08,31,971.32
2022,12,27,08,32,971.32
2022,12,27,08,33,971.32
2022,12,27,08,34,971.32
2022,12,27,08,35,971.32
2022,12,27,08,36,971.32
2022,12,27,08,37,971.32
2022,12,27,08,38,971.32
2022,12,27,08,39,971.32
2022,12,27,08,40,971.32
2022,12,27,08,41,971.32
2022,12,27,08,42,971.32
2022,12,27,08,43,971.32
2022,12,27,08,44,971.32
2022,12,27,08,45,971.59
2022,12,27,08,46,971.62
2022,12,27,08,47,971.62
2022,12,27,08,48,971.62
2022,12,27,08,49,971.62
2022,12,27,08,50,971.62
2022,12,27,08,51,971.62
2022,12,27,08,52,971.62
2022,12,27,08,53,971.62
2022,12,27,08,54,971.62
2022,12,27,08,55,971.62
2022,12,27,08,56,971.62
2022,12,27,08,57,971.62
2022,12,27,08,58,971.62
2022,12,27,08,59,971.62
2022,12,27,09,00,971.91
2022,12,27,09,01,971.93
2022,12,27,09,02,971.93
2022,12,27,09,03,971.93
2022,12,27,09,04,971.93
2022,12,27,09,05,971.93
2022,12,27,09,06,971.93
2022,12,27,09,07,971.93
2022,12,27,09,08,971.93
2022,12,27,09,09,971.93
2022,12,27,09,10,971.93
2022,12,27,09,11,971.93
2022,12,27,09,12,971.93
2022,12,27,09,13,971.93
2022,12,27,09,14,971.93
2022,12,27,09,15,971.99
2022,12,27,09,16,972.00
2022,12,27,09,17,972.00
2022,12,27,09,18,972.00
2022,12,27,09,19,972.00
2022,12,27,09,20,972.00
2022,12,27,09,21,972.00
2022,12,27,09,22,972.00
2022,12,27,09,23,972.00
2022,12,27,09,24,972.00
2022,12,27,09,25,972.00
2022,12,27,09,26,972.00
2022,12,27,09,27,972.00
2022,12,27,09,28,972.00
2022,12,27,09,29,972.00
2022,12,27,09,30,972.26
2022,12,27,09,31,972.27
2022,12,27,09,32,972.27
2022,12,27,09,33,972.27
2022,12,27,09,34,972.27
2022,12,27,09,35,972.27
2022,12,27,09,36,972.27
2022,12,27,09,37,972.27
2022,12,27,09,38,972.27
2022,12,27,09,39,972.27
2022,12,27,09,40,972.27
2022,12,27,09,41,972.27
2022,12,27,09,42,972.27
2022,12,27,09,43,972.27
2022,12,27,09,44,972.27
2022,12,27,09,45,972.39
2022,12,27,09,46,972.40
2022,12,27,09,47,972.40
2022,12,27,09,48,972.40
2022,12,27,09,49,972.40
2022,12,27,09,50,972.40
2022,12,27,09,51,972.40
2022,12,27,09,52,972.40
2022,12,27,09,53,972.40
2022,12,27,09,54,972.40
2022,12,27,09,55,972.40
2022,12,27,09,56,972.40
2022,12,27,09,57,972.40
2022,12,27,09,58,972.40
2022,12,27,09,59,972.40
2022,12,27,10,00,972.53
2022,12,27,10,01,972.54
2022,12,27,10,02,972.54
2022,12,27,10,03,972.54
2022,12,27,10,04,972.54
2022,12,27,10,05,972.54
2022,12,27,10,06,972.54
2022,12,27,10,07,972.54
2022,12,27,10,08,972.54
2022,12,27,10,09,972.54
2022,12,27,10,10,972.54
2022,12,27,10,11,972.54
2022,12,27,10,12,972.54
2022,12,27,10,13,972.54
2022,12,27,10,14,972.54
2022,12,27,10,15,972.82
2022,12,27,10,16,972.84
2022,12,27,10,17,972.84
2022,12,27,10,18,972.84
2022,12,27,10,19,972.84
2022,12,27,10,20,972.84
2022,12,27,10,21,972.84
2022,12,27,10,22,972.84
2022,12,27,10,23,972.84
2022,12,27,10,24,972.84
2022,12,27,10,25,972.84
2022,12,27,10,26,972.84
2022,12,27,10,27,972.84
2022,12,27,10,28,972.84
2022,12,27,10,29,972.84
2022,12,27,10,30,973.03
2022,12,27,10,31,973.05
2022,12,27,10,32,973.05
2022,12,27,10,33,973.05
2022,12,27,10,34,973.05
2022,12,27,10,35,973.05
2022,12,27,10,36,973.05
2022,12,27,10,37,973.05
2022,12,27,10,38,973.05
2022,12,27,10,39,973.05
2022,12,27,10,40,973.05
2022,12,27,10,41,973.05
2022,12,27,10,42,973.05
2022,12,27,10,43,973.05
2022,12,27,10,44,973.05
2022,12,27,10,45,973.23
2022,12,27,10,46,973.25
2022,12,27,10,47,973.25
2022,12,27,10,48,973.25
2022,12,27,10,49,973.25
2022,12,27,10,50,973.25
2022,12,27,10,51,973.25
2022,12,27,10,52,973.25
2022,12,27,10,53,973.25
2022,12,27,10,54,973.25
2022,12,27,10,55,973.25
2022,12,27,10,56,973.25
2022,12,27,10,57,973.25
2022,12,27,10,58,973.25
2022,12,27,10,59,973.25
2022,12,27,11,00,973.34
2022,12,27,11,01,973.35
2022,12,27,11,02,973.35
2022,12,27,11,03,973.35
2022,12,27,11,04,973.35
2022,12,27,11,05,973.35
2022,12,27,11,06,973.35
2022,12,27,11,07,973.35
2022,12,27,11,08,973.35
2022,12,27,11,09,973.35
2022,12,27,11,10,973.35
2022,12,27,11,11,973.35
2022,12,27,11,12,973.35
2022,12,27,11,13,973.35
2022,12,27,11,14,973.35
2022,12,27,11,15,973.50
2022,12,27,11,16,973.52
2022,12,27,11,17,973.52
2022,12,27,11,18,973.52
2022,12,27,11,19,973.52
2022,12,27,11,20,973.52
2022,12,27,11,21,973.52
2022,12,27,11,22,973.52
2022,12,27,11,23,973.52
2022,12,27,11,24,973.52
2022,12,27,11,25,973.52
2022,12,27,11,26,973.52
2022,12,27,11,27,973.52
2022,12,27,11,28,973.52
2022,12,27,11,29,973.52
2022,12,27,11,30,973.61
2022,12,27,11,31,973.62
2022,12,27,11,32,973.62
2022,12,27,11,33,973.62
2022,12,27,11,34,973.62
2022,12,27,11,35,973.62
2022,12,27,11,36,973.62
2022,12,27,11,37,973.62
2022,12,27,11,38,973.62
2022,12,27,11,39,973.62
2022,12,27,11,40,973.62
2022,12,27,11,41,973.62
2022,12,27,11,42,973.62
2022,12,27,11,43,973.62
2022,12,27,11,44,973.62
2022,12,27,11,45,973.80
2022,12,27,11,46,973.82
2022,12,27,11,47,973.82
2022,12,27,11,48,973.82
2022,12,27,11,49,973.82
2022,12,27,11,50,973.82
2022,12,27,11,51,973.82
2022,12,27,11,52,973.82
2022,12,27,11,53,973.82
2022,12,27,11,54,973.82
2022,12,27,11,55,973.82
2022,12,27,11,56,973.82
2022,12,27,11,57,973.82
2022,12,27,11,58,973.82
2022,12,27,11,59,973.82
2022,12,27,12,00,973.96
2022,12,27,12,01,973.99
2022,12,27,12,02,973.99
2022,12,27,12,03,973.99
2022,12,27,12,04,973.99
2022,12,27,12,05,973.99
2022,12,27,12,06,973.99
2022,12,27,12,07,973.99
2022,12,27,12,08,973.99
2022,12,27,12,09,973.99
2022,12,27,12,10,973.99
2022,12,27,12,11,973.99
2022,12,27,12,12,973.99
2022,12,27,12,13,973.99
2022,12,27,12,14,973.99
2022,12,27,12,15,974.10
2022,12,27,12,16,974.10
2022,12,27,12,17,974.10
2022,12,27,12,18,974.10
2022,12,27,12,19,974.10
2022,12,27,12,20,974.10
2022,12,27,12,21,974.10
2022,12,27,12,22,974.10
2022,12,27,12,23,974.10
2022,12,27,12,24,974.10
2022,12,27,12,25,974.10
2022,12,27,12,26,974.10
2022,12,27,12,27,974.10
2022,12,27,12,28,974.10
2022,12,27,12,29,974.10
2022,12,27,12,30,974.48
2022,12,27,12,31,974.50
2022,12,27,12,32,974.50
2022,12,27,12,33,974.50
2022,12,27,12,34,974.50
2022,12,27,12,35,974.50
2022,12,27,12,36,974.50
2022,12,27,12,37,974.50
2022,12,27,12,38,974.50
2022,12,27,12,39,974.50
2022,12,27,12,40,974.50
2022,12,27,12,41,974.50
2022,12,27,12,42,974.50
2022,12,27,12,43,974.50
2022,12,27,12,44,974.50
2022,12,27,12,45,974.68
2022,12,27,12,46,974.70
2022,12,27,12,47,974.70
2022,12,27,12,48,974.70
2022,12,27,12,49,974.70
2022,12,27,12,50,974.70
2022,12,27,12,51,974.70
2022,12,27,12,52,974.70
2022,12,27,12,53,974.70
2022,12,27,12,54,974.70
2022,12,27,12,55,974.70
2022,12,27,12,56,974.70
2022,12,27,12,57,974.70
2022,12,27,12,58,974.70
2022,12,27,12,59,974.70
2022,12,27,13,00,975.01
2022,12,27,13,01,975.04
2022,12,27,13,02,975.04
2022,12,27,13,03,975.04
2022,12,27,13,04,975.04
2022,12,27,13,05,975.04
2022,12,27,13,06,975.04
2022,12,27,13,07,975.04
2022,12,27,13,08,975.04
2022,12,27,13,09,975.04
2022,12,27,13,10,975.04
2022,12,27,13,11,975.04
2022,12,27,13,12,975.04
2022,12,27,13,13,975.04
2022,12,27,13,14,975.04
2022,12,27,13,15,975.27
2022,12,27,13,16,975.28
2022,12,27,13,17,975.28
2022,12,27,13,18,975.28
2022,12,27,13,19,975.28
2022,12,27,13,20,975.28
2022,12,27,13,21,975.28
2022,12,27,13,22,975.28
2022,12,27,13,23,975.28
2022,12,27,13,24,975.28
2022,12,27,13,25,975.28
2022,12,27,13,26,975.28
2022,12,27,13,27,975.28
2022,12,27,13,28,975.28
2022,12,27,13,29,975.28
2022,12,27,13,30,975.52
2022,12,27,13,31,975.55
2022,12,27,13,32,975.55
2022,12,27,13,33,975.55
2022,12,27,13,34,975.55
2022,12,27,13,35,975.55
2022,12,27,13,36,975.55
2022,12,27,13,37,975.55
2022,12,27,13,38,975.55
2022,12,27,13,39,975.55
2022,12,27,13,40,975.55
2022,12,27,13,41,975.55
2022,12,27,13,42,975.55
2022,12,27,13,43,975.55
2022,12,27,13,44,975.55
2022,12,27,13,45,975.86
2022,12,27,13,46,975.89
2022,12,27,13,47,975.89
2022,12,27,13,48,975.89
2022,12,27,13,49,975.89
2022,12,27,13,50,975.89
2022,12,27,13,51,975.89
2022,12,27,13,52,975.89
2022,12,27,13,53,975.89
2022,12,27,13,54,975.89
2022,12,27,13,55,975.89
2022,12,27,13,56,975.89
2022,12,27,13,57,975.89
2022,12,27,13,58,975.89
2022,12,27,13,59,975.89
2022,12,27,14,00,976.21
2022,12,27,14,01,976.23
2022,12,27,14,02,976.23
2022,12,27,14,03,976.23
2022,12,27,14,04,976.23
2022,12,27,14,05,976.23
2022,12,27,14,06,976.23
2022,12,27,14,07,976.23
2022,12,27,14,08,976.23
2022,12,27,14,09,976.23
2022,12,27,14,10,976.23
2022,12,27,14,11,976.23
2022,12,27,14,12,976.23
2022,12,27,14,13,976.23
2022,12,27,14,14,976.23
2022,12,27,14,15,976.56
2022,12,27,14,16,976.60
2022,12,27,14,17,976.60
2022,12,27,14,18,976.60
2022,12,27,14,19,976.60
2022,12,27,14,20,976.60
2022,12,27,14,21,976.60
2022,12,27,14,22,976.60
2022,12,27,14,23,976.60
2022,12,27,14,24,976.60
2022,12,27,14,25,976.60
2022,12,27,14,26,976.60
2022,12,27,14,27,976.60
2022,12,27,14,28,976.60
2022,12,27,14,29,976.60
2022,12,27,14,30,977.03
2022,12,27,14,31,977.08
2022,12,27,14,32,977.08
2022,12,27,14,33,977.08
2022,12,27,14,34,977.08
2022,12,27,14,35,977.08
2022,12,27,14,36,977.08
2022,12,27,14,37,977.08
2022,12,27,14,38,977.08
2022,12,27,14,39,977.08
2022,12,27,14,40,977.08
2022,12,27,14,41,977.08
2022,12,27,14,42,977.08
2022,12,27,14,43,977.08
2022,12,27,14,44,977.08
2022,12,27,14,45,977.53
2022,12,27,14,46,977.58
2022,12,27,14,47,977.58
2022,12,27,14,48,977.58
2022,12,27,14,49,977.58
2022,12,27,14,50,977.58
2022,12,27,14,51,977.58
2022,12,27,14,52,977.58
2022,12,27,14,53,977.58
2022,12,27,14,54,977.58
2022,12,27,14,55,977.58
2022,12,27,14,56,977.58
2022,12,27,14,57,977.58
2022,12,27,14,58,977.58
2022,12,27,14,59,977.58
2022,12,27,15,00,977.97
2022,12,27,15,01,978.02
2022,12,27,15,02,978.02
2022,12,27,15,03,978.02
2022,12,27,15,04,978.02
2022,12,27,15,05,978.02
2022,12,27,15,06,978.02
2022,12,27,15,07,978.02
2022,12,27,15,08,978.02
2022,12,27,15,09,978.02
2022,12,27,15,10,978.02
2022,12,27,15,11,978.02
2022,12,27,15,12,978.02
2022,12,27,15,13,978.02
2022,12,27,15,14,978.02
2022,12,27,15,15,978.45
2022,12,27,15,16,978.50
2022,12,27,15,17,978.50
2022,12,27,15,18,978.50
2022,12,27,15,19,978.50
2022,12,27,15,20,978.50
2022,12,27,15,21,978.50
2022,12,27,15,22,978.50
2022,12,27,15,23,978.50
2022,12,27,15,24,978.50
2022,12,27,15,25,978.50
2022,12,27,15,26,978.50
2022,12,27,15,27,978.50
2022,12,27,15,28,978.50
2022,12,27,15,29,978.50
2022,12,27,15,30,978.92
2022,12,27,15,31,978.97
2022,12,27,15,32,978.97
2022,12,27,15,33,978.97
2022,12,27,15,34,978.97
2022,12,27,15,35,978.97
2022,12,27,15,36,978.97
2022,12,27,15,37,978.97
2022,12,27,15,38,978.97
2022,12,27,15,39,978.97
2022,12,27,15,40,978.97
2022,12,27,15,41,978.97
2022,12,27,15,42,978.97
2022,12,27,15,43,978.97
2022,12,27,15,44,978.97
2022,12,27,15,45,979.43
2022,12,27,15,46,979.48
2022,12,27,15,47,979.48
2022,12,27,15,48,979.48
2022,12,27,15,49,979.48
2022,12,27,15,50,979.48
2022,12,27,15,51,979.48
2022,12,27,15,52,979.48
2022,12,27,15,53,979.48
2022,12,27,15,54,979.48
2022,12,27,15,55,979.48
2022,12,27,15,56,979.48
2022,12,27,15,57,979.48
2022,12,27,15,58,979.48
2022,12,27,15,59,979.48
2022,12,27,16,00,980.14
2022,12,27,16,01,980.22
2022,12,27,16,02,980.22
2022,12,27,16,03,980.22
2022,12,27,16,04,980.22
2022,12,27,16,05,980.22
2022,12,27,16,06,980.22
2022,12,27,16,07,980.22
2022,12,27,16,08,980.22
2022,12,27,16,09,980.22
2022,12,27,16,10,980.22
2022,12,27,16,11,980.22
2022,12,27,16,12,980.22
2022,12,27,16,13,980.22
2022,12,27,16,14,980.22
2022,12,27,16,15,980.54
2022,12,27,16,16,980.60
2022,12,27,16,17,980.60
2022,12,27,16,18,980.60
2022,12,27,16,19,980.60
2022,12,27,16,20,980.60
2022,12,27,16,21,980.60
2022,12,27,16,22,980.60
2022,12,27,16,23,980.60
2022,12,27,16,24,980.60
2022,12,27,16,25,980.60
2022,12,27,16,26,980.60
2022,12,27,16,27,980.60
2022,12,27,16,28,980.60
2022,12,27,16,29,980.60
2022,12,27,16,30,980.85
2022,12,27,16,31,980.87
2022,12,27,16,32,980.87
2022,12,27,16,33,980.87
2022,12,27,16,34,980.87
2022,12,27,16,35,980.87
2022,12,27,16,36,980.87